FW3222 Weather Reports


Display with metric or nautical units.
time (UTC)temp
F
wind
direction
speed
MPH
gust
MPH
rain 1hr
in
rain 24hr
in
rain mn
in
humidity
%
barometer
mb
20260903180908 84 200 4.0 10.0 0.00 0.32 0.31 60 1015.3
20260903180608 84 200 4.0 10.0 0.00 0.32 0.31 60 1015.3
20260903180302 84 200 4.0 10.0 0.00 0.32 0.31 60 1015.3
20260903175957 84 200 4.0 10.0 0.00 0.32 0.31 60 1015.3
20260903175659 84 252 4.0 10.0 0.00 0.32 0.31 59 1015.4
20260903175402 84 132 4.0 10.0 0.00 0.32 0.31 60 1015.4
20260903175052 84 284 3.0 10.0 0.00 0.32 0.31 60 1015.4
20260903174751 84 292 3.0 9.0 0.00 0.32 0.31 59 1015.5
20260903174441 84 193 3.0 9.0 0.00 0.32 0.31 59 1015.6
20260903174136 84 0 3.0 11.0 0.00 0.32 0.31 60 1015.6
20260903172947 83 215 3.0 11.0 0.00 0.32 0.31 60 1015.7
20260903172633 83 226 3.0 11.0 0.00 0.33 0.31 61 1015.7
20260903172323 83 182 2.0 9.0 0.00 0.33 0.31 64 1015.8
20260903171600 82 316 3.0 9.0 0.00 0.34 0.31 66 1015.7
20260903171302 81 203 3.0 8.0 0.00 0.34 0.31 66 1015.8
20260903170547 80 324 2.0 11.0 0.00 0.34 0.31 67 1015.8
20260903170234 80 145 2.0 11.0 0.00 0.35 0.31 69 1015.8
20260903165516 79 267 3.0 11.0 0.00 0.35 0.31 71 1015.9
20260903165216 79 70 3.0 11.0 0.00 0.36 0.31 71 1015.9
20260903164911 78 321 3.0 11.0 0.00 0.36 0.31 72 1016.0
20260903164607 78 9 3.0 11.0 0.00 0.36 0.31 72 1016.1
20260903164308 77 324 3.0 11.0 0.00 0.37 0.31 73 1016.2
20260903164002 77 289 3.0 11.0 0.00 0.37 0.31 73 1016.3
20260903163658 77 218 3.0 11.0 0.00 0.38 0.31 74 1016.4
20260903163359 76 206 3.0 11.0 0.00 0.38 0.31 75 1016.3
20260903163046 76 232 3.0 11.0 0.00 0.39 0.31 74 1016.3
20260903162737 75 175 3.0 11.0 0.00 0.39 0.31 74 1016.5
20260903162426 75 259 3.0 12.0 0.00 0.40 0.31 74 1016.5
20260903162124 75 173 3.0 12.0 0.00 0.40 0.31 75 1016.7
20260903161826 75 281 4.0 12.0 0.00 0.41 0.31 74 1016.7
20260903161522 75 225 4.0 12.0 0.00 0.41 0.31 75 1016.8
20260903161209 75 231 4.0 12.0 0.00 0.41 0.31 75 1016.8
20260903160857 75 232 5.0 12.0 0.00 0.41 0.31 76 1016.8
20260903160559 75 274 3.0 12.0 0.00 0.41 0.31 77 1016.9
20260903160250 74 351 3.0 11.0 0.00 0.41 0.31 76 1016.8
20260903155936 74 283 3.0 11.0 0.00 0.41 0.31 76 1016.9
20260903155627 74 249 2.0 10.0 0.00 0.41 0.31 77 1017.1
20260903155323 74 311 3.0 10.0 0.00 0.41 0.31 77 1017.2
20260903155016 74 280 3.0 10.0 0.00 0.42 0.31 77 1017.3
20260903154707 73 295 3.0 10.0 0.00 0.42 0.31 77 1017.3
20260903154408 73 0 2.0 8.0 0.00 0.42 0.31 77 1017.1
20260903154058 73 283 2.0 6.0 0.00 0.43 0.31 77 1017.1
20260903153755 73 258 1.0 6.0 0.00 0.45 0.31 78 1017.0
20260903153454 73 336 1.0 6.0 0.00 0.50 0.31 77 1017.0
20260903153150 73 171 1.0 6.0 0.00 0.58 0.31 78 1016.9
20260903152841 73 285 1.0 6.0 0.00 0.60 0.31 78 1017.1
20260903152536 73 291 0.0 5.0 0.00 0.62 0.31 78 1017.1
20260903152226 72 269 1.0 3.0 0.00 0.63 0.31 78 1017.3
20260903151450 72 288 0.0 3.0 0.00 0.63 0.31 78 1017.4
20260903151154 72 301 0.0 2.0 0.00 0.63 0.31 78 1017.1
20260903150851 72 306 0.0 6.0 0.00 0.63 0.31 78 1017.2
20260903150547 71 315 1.0 6.0 0.00 0.63 0.31 78 1017.3
20260903150242 71 269 1.0 11.0 0.00 0.63 0.31 78 1017.1
20260903145935 71 246 1.0 11.0 0.00 0.63 0.31 77 1017.1
20260903145623 71 221 2.0 11.0 0.00 0.63 0.31 77 1016.8
20260903145322 71 221 3.0 11.0 0.00 0.63 0.31 77 1016.7
20260903145023 71 170 3.0 11.0 0.00 0.63 0.31 77 1016.7
20260903144714 71 196 4.0 11.0 0.04 0.63 0.31 77 1016.7
20260903144402 71 237 3.0 11.0 0.05 0.63 0.31 77 1016.7
20260903143638 71 273 3.0 8.0 0.13 0.63 0.31 77 1016.9
20260903143325 71 161 2.0 8.0 0.17 0.62 0.31 77 1017.1
20260903143010 72 194 2.0 7.0 0.10 0.61 0.30 77 1017.7
20260903142704 72 213 1.0 7.0 0.16 0.61 0.28 77 1018.1
20260903141938 72 208 1.0 5.0 0.10 0.59 0.27 77 1018.2
20260903141633 72 153 1.0 5.0 0.10 0.59 0.27 77 1018.2
20260903141324 72 225 1.0 5.0 0.10 0.58 0.26 77 1018.3
20260903141023 72 259 1.0 5.0 0.00 0.58 0.26 77 1018.4
20260903140722 72 227 1.0 3.0 0.00 0.57 0.26 77 1018.6
20260903140412 72 177 1.0 3.0 0.00 0.57 0.25 77 1018.6
20260903140107 72 204 1.0 3.0 0.00 0.57 0.25 77 1018.4
20260903135757 72 166 1.0 10.0 0.00 0.57 0.25 77 1018.4
20260903134603 72 342 3.0 10.0 0.00 0.57 0.25 77 1018.6
20260903134251 72 319 2.0 10.0 0.00 0.57 0.25 78 1018.8
20260903133943 72 28 3.0 10.0 0.00 0.57 0.25 78 1018.6
20260903133645 72 292 3.0 10.0 0.00 0.57 0.25 78 1018.0
20260903132922 72 270 3.0 10.0 0.00 0.57 0.25 78 1017.5
20260903132608 72 289 3.0 10.0 0.00 0.57 0.25 78 1017.3
20260903132306 72 260 3.0 10.0 0.00 0.57 0.25 78 1017.3
20260903131554 71 265 2.0 7.0 0.00 0.57 0.25 78 1017.3
20260903131255 71 323 1.0 7.0 0.00 0.57 0.25 78 1017.0
20260903130950 71 156 1.0 7.0 0.00 0.57 0.25 78 1016.8
20260903130647 71 243 1.0 7.0 0.00 0.57 0.25 78 1016.9
20260903130340 71 268 1.0 7.0 0.00 0.57 0.25 78 1016.9
20260903125605 71 155 1.0 4.0 0.00 0.57 0.25 78 1017.3
20260903125306 71 227 1.0 7.0 0.00 0.57 0.25 78 1017.6
20260903125008 71 259 1.0 7.0 0.00 0.57 0.25 78 1017.7
20260903124712 71 154 2.0 7.0 0.00 0.57 0.25 78 1017.8
20260903124401 71 282 2.0 7.0 0.00 0.57 0.25 78 1017.7
20260903124053 71 277 2.0 8.0 0.00 0.57 0.25 78 1017.8
20260903123753 71 156 1.0 8.0 0.00 0.57 0.25 78 1017.9
20260903123447 71 275 1.0 8.0 0.00 0.57 0.25 78 1017.9
20260903123150 71 279 2.0 8.0 0.00 0.57 0.25 78 1017.7
20260903122851 71 291 2.0 8.0 0.00 0.57 0.25 78 1017.6
20260903122551 71 281 1.0 8.0 0.00 0.57 0.25 78 1017.8
20260903122238 71 277 1.0 6.0 0.00 0.57 0.25 78 1017.8
20260903121926 70 256 1.0 6.0 0.00 0.57 0.25 78 1017.7
20260903121154 70 219 1.0 6.0 0.00 0.57 0.25 78 1017.7
20260903120848 70 236 1.0 6.0 0.00 0.57 0.25 78 1017.6
20260903120547 70 283 0.0 3.0 0.00 0.57 0.25 78 1017.5
20260903120237 70 271 0.0 3.0 0.00 0.57 0.25 78 1017.3
20260903115932 70 258 0.0 3.0 0.00 0.57 0.25 78 1017.2
20260903115154 70 228 0.0 3.0 0.00 0.57 0.25 78 1017.2
20260903114008 69 278 0.0 3.0 0.00 0.57 0.25 78 1017.5
20260903113658 69 281 0.0 3.0 0.00 0.57 0.25 78 1017.5
20260903113354 69 273 0.0 2.0 0.00 0.57 0.25 78 1017.2
20260903113055 69 311 0.0 2.0 0.00 0.57 0.25 78 1017.1
20260903112758 69 334 0.0 1.0 0.00 0.57 0.25 78 1016.9
20260903112448 69 93 0.0 1.0 0.00 0.57 0.25 78 1016.9
20260903112137 69 42 0.0 1.0 0.00 0.57 0.25 78 1016.9
20260903111828 69 42 0.0 7.0 0.00 0.57 0.25 78 1017.0
20260903111532 69 314 0.0 7.0 0.00 0.57 0.25 78 1017.1
20260903111236 69 0 0.0 7.0 0.00 0.57 0.25 78 1017.1
20260903110939 69 0 0.0 2.0 0.04 0.57 0.25 78 1017.1
20260903110209 69 265 0.0 2.0 0.08 0.57 0.25 78 1017.2
20260903105902 69 9 0.0 7.0 0.13 0.57 0.25 78 1017.4
20260903105600 69 17 1.0 7.0 0.16 0.56 0.25 77 1017.2
20260903104841 69 161 1.0 5.0 0.13 0.55 0.23 77 1017.1
20260903104535 69 154 1.0 5.0 0.06 0.54 0.21 77 1017.7
20260903104238 69 177 1.0 5.0 0.06 0.53 0.21 77 1018.3
20260903103927 69 222 0.0 3.0 0.00 0.53 0.21 77 1018.4
20260903103629 69 271 0.0 3.0 0.00 0.53 0.21 77 1018.3
20260903103329 69 236 1.0 2.0 0.00 0.52 0.20 77 1018.3
20260903103022 69 252 0.0 2.0 0.00 0.52 0.20 77 1018.2
20260903102719 69 247 0.0 2.0 0.00 0.52 0.20 77 1017.7
20260903102420 69 57 0.0 2.0 0.00 0.52 0.20 77 1017.5
20260903102117 69 311 0.0 1.0 0.00 0.52 0.20 77 1017.9
20260903101816 69 311 0.0 1.0 0.00 0.52 0.20 77 1018.1
20260903101518 69 178 0.0 3.0 0.00 0.52 0.20 77 1018.2
20260903100756 69 208 0.0 1.0 0.00 0.52 0.20 77 1018.2
20260903100448 69 211 0.0 3.0 0.00 0.51 0.19 77 1018.2
20260903100146 69 183 0.0 3.0 0.04 0.51 0.19 77 1018.3
20260903095848 69 183 0.0 1.0 0.05 0.51 0.19 77 1018.4
20260903095549 70 148 0.0 0.0 0.06 0.51 0.19 77 1018.7
20260903095246 70 126 0.0 0.0 0.10 0.51 0.19 77 1018.9
20260903094949 70 167 0.0 0.0 0.15 0.51 0.19 77 1019.3
20260903094641 70 167 0.0 3.0 0.15 0.50 0.18 77 1019.6
20260903094341 70 279 0.0 3.0 0.08 0.49 0.18 77 1019.7
20260903094036 70 286 0.0 3.0 0.10 0.49 0.17 77 1019.6
20260903093731 70 306 0.0 3.0 0.15 0.49 0.17 77 1019.3
20260903093435 70 70 0.0 3.0 0.00 0.48 0.16 77 1018.8
20260903093138 70 117 0.0 2.0 0.00 0.47 0.16 77 1018.8
20260903092827 70 320 0.0 0.0 0.00 0.47 0.15 77 1019.0
20260903092518 70 320 0.0 0.0 0.00 0.47 0.15 77 1018.9
20260903092220 70 320 0.0 0.0 0.00 0.47 0.15 77 1018.9
20260903091919 70 320 0.0 0.0 0.04 0.47 0.15 77 1018.8
20260903091619 70 320 0.0 0.0 0.05 0.47 0.15 77 1018.7
20260903091307 70 320 0.0 0.0 0.06 0.47 0.15 77 1018.6
20260903090959 70 320 0.0 5.0 0.12 0.47 0.15 77 1018.4
20260903090700 70 319 0.0 5.0 0.21 0.47 0.15 77 1018.4
20260903090353 70 140 1.0 5.0 0.34 0.46 0.13 77 1018.4
20260903090052 70 127 1.0 5.0 1.54 0.41 0.10 77 1018.5
20260903085753 70 159 1.0 5.0 0.69 0.36 0.05 77 1019.1
20260903085444 70 229 1.0 5.0 0.00 0.35 0.03 77 1019.1
20260903085134 70 259 1.0 4.0 0.00 0.35 0.03 77 1018.9
20260903084831 70 101 1.0 4.0 0.00 0.35 0.03 77 1018.5
20260903084520 70 61 1.0 3.0 0.00 0.35 0.03 77 1018.3
20260903084215 70 47 1.0 3.0 0.00 0.35 0.03 77 1018.3
20260903083904 70 104 0.0 2.0 0.00 0.35 0.03 77 1018.5
20260903083605 70 20 0.0 2.0 0.00 0.35 0.03 77 1018.7
20260903082832 70 140 0.0 0.0 0.00 0.34 0.02 77 1018.1
20260903082523 70 139 0.0 0.0 0.00 0.34 0.02 77 1018.1
20260903082222 70 139 0.0 0.0 0.00 0.34 0.02 77 1018.2
20260903081911 70 140 0.0 0.0 0.00 0.34 0.02 77 1018.2
20260903081604 71 135 0.0 0.0 0.00 0.34 0.02 76 1018.2
20260903081256 71 62 0.0 2.0 0.00 0.34 0.02 77 1018.4
20260903080951 71 75 0.0 2.0 0.00 0.34 0.02 76 1018.3
20260903080649 71 90 0.0 2.0 0.00 0.34 0.02 76 1018.2
20260903080353 71 121 0.0 2.0 0.00 0.34 0.02 76 1018.1
20260903075629 71 5 0.0 4.0 0.05 0.34 0.02 76 1018.2
20260903074421 71 113 0.0 1.0 0.00 0.33 0.01 76 1017.9
20260903074122 71 148 0.0 4.0 0.00 0.33 0.01 76 1017.8
20260903073822 71 74 0.0 4.0 0.00 0.32 0.00 76 1017.9
20260903073509 71 131 0.0 3.0 0.00 0.32 0.00 76 1018.0
20260903073200 71 113 1.0 3.0 0.00 0.32 0.00 76 1018.2
20260903072443 71 101 1.0 7.0 0.00 0.32 0.00 76 1018.4
20260903072130 71 114 1.0 8.0 0.00 0.32 0.00 76 1018.4
20260903071819 71 44 1.0 8.0 0.00 0.32 0.00 76 1018.4
20260903071508 71 47 1.0 8.0 0.00 0.32 0.00 76 1018.1
20260903071208 71 355 1.0 8.0 0.00 0.32 0.00 76 1017.8
20260903070909 71 88 2.0 8.0 0.00 0.32 0.00 76 1017.6
20260903070600 71 82 2.0 8.0 0.00 0.32 0.00 76 1017.6
20260903070255 71 285 2.0 8.0 0.00 0.32 0.00 76 1017.7
20260903065944 71 345 1.0 7.0 0.00 0.32 0.00 76 1017.7
20260903065647 71 76 0.0 4.0 0.00 0.32 0.00 77 1017.6
20260903065352 71 0 0.0 4.0 0.00 0.32 0.00 77 1017.4
20260903065051 71 271 0.0 0.0 0.00 0.32 0.00 76 1017.3
20260903064741 71 271 0.0 0.0 0.00 0.32 0.00 76 1017.2
20260903064440 71 271 0.0 0.0 0.00 0.32 0.00 76 1017.1
20260903064140 71 271 0.0 0.0 0.00 0.32 0.00 76 1017.1
20260903063835 71 271 0.0 0.0 0.00 0.32 0.00 76 1017.1
20260903063524 71 271 0.0 0.0 0.00 0.32 0.00 76 1017.3
20260903063221 71 271 0.0 0.0 0.00 0.32 0.00 76 1017.3
20260903062456 71 271 0.0 1.0 0.00 0.32 0.00 76 1017.1
20260903062146 71 271 0.0 1.0 0.00 0.32 0.00 76 1016.9
20260903061848 71 205 0.0 1.0 0.00 0.32 0.00 76 1016.7
20260903061119 72 211 0.0 1.0 0.00 0.32 0.00 76 1016.9
20260903060818 72 118 0.0 0.0 0.00 0.32 0.00 76 1017.0
20260903060058 72 118 0.0 0.0 0.00 0.32 0.00 76 1016.8
20260903055750 72 118 0.0 0.0 0.00 0.32 0.00 76 1016.9
20260903055438 72 118 0.0 0.0 0.00 0.32 0.00 76 1017.1
20260903055139 72 90 0.0 0.0 0.00 0.32 0.00 76 1017.2
20260903054830 72 164 0.0 1.0 0.00 0.32 0.00 77 1017.4
20260903054532 72 82 0.0 0.0 0.00 0.32 0.00 76 1017.3
20260903054234 72 82 0.0 0.0 0.00 0.32 0.00 76 1017.4
20260903053510 72 82 0.0 0.0 0.00 0.32 0.00 76 1017.4
20260903053203 72 82 0.0 4.0 0.00 0.32 0.00 76 1017.3
20260903052855 72 92 0.0 4.0 0.00 0.32 0.00 76 1017.3
20260903052555 72 90 0.0 4.0 0.00 0.32 0.00 76 1017.3
20260903052248 72 94 0.0 4.0 0.00 0.32 0.00 76 1017.4
20260903051949 72 96 0.0 3.0 0.00 0.32 0.00 76 1017.5
20260903051649 72 67 0.0 0.0 0.00 0.32 0.00 77 1017.5
20260903051339 72 76 0.0 0.0 0.00 0.32 0.00 77 1017.3
20260903050149 72 104 1.0 8.0 0.00 0.32 0.00 77 1017.6
20260903045845 72 89 1.0 8.0 0.00 0.32 0.00 77 1017.8
20260903045541 72 75 2.0 12.0 0.00 0.32 0.00 77 1017.8
20260903045238 72 90 2.0 12.0 0.00 0.32 0.00 77 1018.0
20260903044926 72 94 3.0 12.0 0.00 0.32 0.00 77 1018.0
20260903044624 72 67 3.0 12.0 0.00 0.32 0.00 77 1018.0
20260903043854 72 94 4.0 12.0 0.00 0.32 0.00 77 1018.0
20260903043553 72 109 2.0 11.0 0.00 0.32 0.00 77 1018.1
20260903043243 72 76 1.0 7.0 0.00 0.32 0.00 77 1018.4
20260903042942 72 87 1.0 3.0 0.00 0.32 0.00 77 1018.5
20260903042227 72 27 0.0 2.0 0.00 0.32 0.00 77 1017.8
20260903041925 72 59 0.0 2.0 0.00 0.32 0.00 77 1017.7
20260903041612 72 89 0.0 0.0 0.00 0.32 0.00 77 1017.7
20260903041304 72 92 0.0 1.0 0.00 0.32 0.00 77 1017.5
20260903040551 72 163 0.0 0.0 0.00 0.32 0.00 77 1017.5
20260903040237 72 163 0.0 0.0 0.00 0.32 0.00 77 1017.4
20260903035936 72 175 0.0 0.0 0.00 0.32 0.32 77 1017.4
20260903035630 72 192 0.0 0.0 0.00 0.32 0.32 77 1017.6
20260903035327 72 192 0.0 0.0 0.00 0.32 0.32 77 1017.6
20260903035018 72 193 0.0 1.0 0.00 0.32 0.32 77 1017.6
20260903034708 72 138 0.0 0.0 0.00 0.32 0.32 77 1017.6
20260903034410 72 123 0.0 0.0 0.00 0.32 0.32 77 1017.6
20260903034112 72 76 0.0 0.0 0.00 0.32 0.32 77 1017.7
20260903033800 72 76 0.0 2.0 0.00 0.32 0.32 77 1017.7
20260903033453 72 59 0.0 1.0 0.00 0.32 0.32 77 1017.6
20260903033147 72 101 0.0 1.0 0.00 0.32 0.32 77 1017.5
20260903032851 72 205 0.0 1.0 0.00 0.32 0.32 77 1017.5
20260903032554 72 57 0.0 1.0 0.00 0.32 0.32 77 1017.4
20260903032255 72 236 0.0 0.0 0.00 0.34 0.32 77 1017.4
20260903031955 72 188 0.0 2.0 0.00 0.41 0.32 77 1017.4
20260903031232 72 51 0.0 0.0 0.00 0.52 0.32 77 1017.8
20260903030926 72 42 0.0 0.0 0.00 0.52 0.32 77 1017.8
20260903030615 72 42 0.0 0.0 0.00 0.52 0.32 77 1017.7
20260903025901 72 188 0.0 0.0 0.00 0.52 0.32 76 1017.9
20260903024702 72 150 0.0 0.0 0.00 0.52 0.32 76 1017.7
20260903024357 72 150 0.0 0.0 0.00 0.52 0.32 76 1017.8
20260903024044 72 124 0.0 0.0 0.00 0.52 0.32 76 1017.9
20260903023748 72 124 0.0 0.0 0.00 0.52 0.32 76 1017.9
20260903023445 72 71 0.0 0.0 0.00 0.52 0.32 76 1017.9
20260903023146 72 76 0.0 0.0 0.00 0.52 0.32 76 1017.7
20260903022431 72 96 0.0 0.0 0.00 0.52 0.32 76 1017.1
20260903022122 73 138 0.0 0.0 0.00 0.52 0.32 76 1017.1
20260903021826 73 174 0.0 2.0 0.00 0.52 0.32 76 1017.0
20260903021521 73 111 0.0 0.0 0.00 0.52 0.32 76 1016.9
20260903021210 73 190 0.0 0.0 0.00 0.52 0.32 76 1017.1
20260903020901 73 148 0.0 0.0 0.00 0.52 0.32 76 1017.2
20260903020547 73 71 0.0 0.0 0.00 0.52 0.32 76 1017.1
20260903020251 73 74 0.0 1.0 0.00 0.52 0.32 76 1017.1
20260903015527 73 319 0.0 0.0 0.00 0.52 0.32 76 1017.0
20260903015224 73 319 0.0 0.0 0.00 0.52 0.32 76 1017.1
20260903014915 73 319 0.0 0.0 0.00 0.52 0.32 76 1017.2
20260903014614 73 58 0.0 0.0 0.00 0.52 0.32 76 1017.2
20260903014308 73 58 0.0 1.0 0.00 0.52 0.32 76 1017.2
20260903014005 73 69 0.0 1.0 0.00 0.52 0.32 76 1017.3
20260903013706 73 190 0.0 0.0 0.00 0.52 0.32 76 1017.3
20260903013354 74 196 0.0 0.0 0.00 0.52 0.32 76 1017.4
20260903013050 74 196 0.0 0.0 0.00 0.52 0.32 76 1017.5
20260903012746 74 191 0.0 0.0 0.00 0.52 0.32 76 1017.5
20260903012451 74 191 0.0 3.0 0.00 0.52 0.32 76 1017.4
20260903012143 74 131 0.0 3.0 0.00 0.52 0.32 76 1017.5
20260903011830 74 86 0.0 3.0 0.00 0.52 0.32 76 1017.4
20260903011523 74 106 0.0 1.0 0.00 0.52 0.32 76 1017.3
20260903010335 74 88 1.0 3.0 0.00 0.52 0.32 76 1017.0
20260903005615 74 90 1.0 3.0 0.00 0.52 0.32 76 1017.1
20260903005313 74 86 0.0 2.0 0.00 0.52 0.32 76 1017.2
20260903005017 74 68 0.0 1.0 0.00 0.52 0.32 76 1017.1
20260903004704 74 83 0.0 0.0 0.00 0.52 0.32 76 1017.0
20260903004358 74 88 0.0 0.0 0.00 0.52 0.32 76 1017.1
20260903004052 74 71 0.0 3.0 0.00 0.52 0.32 76 1017.0
20260903003742 74 65 0.0 1.0 0.00 0.52 0.32 76 1017.1
20260903003442 74 80 0.0 0.0 0.00 0.52 0.32 76 1017.0
20260903003140 75 80 0.0 0.0 0.00 0.52 0.32 76 1017.2
20260903002843 75 80 0.0 0.0 0.00 0.52 0.32 76 1017.2
20260903002120 75 80 0.0 0.0 0.00 0.52 0.32 76 1017.1
20260903001807 75 115 0.0 0.0 0.00 0.52 0.32 76 1017.0
20260903001454 75 115 0.0 1.0 0.00 0.52 0.32 76 1017.1
20260903001142 75 77 0.0 1.0 0.00 0.52 0.32 75 1017.1
20260903000420 75 91 0.0 0.0 0.00 0.52 0.32 75 1017.1
20260902235650 75 111 0.0 0.0 0.00 0.52 0.32 75 1017.2
20260902235343 75 111 0.0 0.0 0.00 0.52 0.32 75 1017.2
20260902235038 75 111 0.0 0.0 0.00 0.52 0.32 75 1017.2
20260902234731 75 111 0.0 0.0 0.00 0.52 0.32 75 1017.2
20260902234423 75 111 0.0 0.0 0.00 0.52 0.32 75 1017.2
20260902234111 76 111 0.0 0.0 0.00 0.52 0.32 75 1017.3
20260902233812 76 111 0.0 0.0 0.00 0.52 0.32 75 1017.3
20260902233501 76 111 0.0 0.0 0.00 0.52 0.32 75 1017.2
20260902232747 76 111 0.0 0.0 0.00 0.52 0.32 75 1017.3
20260902232437 76 111 0.0 0.0 0.00 0.52 0.32 75 1017.2
20260902232125 76 111 0.0 0.0 0.00 0.52 0.32 75 1017.1
20260902231821 76 111 0.0 0.0 0.00 0.52 0.32 75 1017.1
20260902231519 76 98 0.0 0.0 0.00 0.52 0.32 75 1017.2
20260902231206 76 70 0.0 3.0 0.00 0.52 0.32 75 1017.0
20260902230431 76 96 0.0 0.0 0.00 0.52 0.32 75 1017.1
20260902230123 76 96 0.0 1.0 0.00 0.52 0.32 75 1017.2
20260902225815 76 88 0.0 1.0 0.00 0.52 0.32 75 1017.2
20260902225509 76 89 0.0 0.0 0.00 0.52 0.32 75 1017.1
20260902225204 76 94 0.0 0.0 0.00 0.52 0.32 75 1017.1
20260902224903 76 90 0.0 0.0 0.00 0.52 0.32 75 1017.0
20260902224136 77 84 0.0 2.0 0.00 0.52 0.32 74 1016.9
20260902223826 77 84 0.0 2.0 0.00 0.52 0.32 74 1016.8
20260902223520 77 88 0.0 2.0 0.00 0.52 0.32 74 1017.0
20260902223207 77 81 0.0 0.0 0.00 0.52 0.32 74 1017.2
20260902222859 77 81 0.0 3.0 0.00 0.52 0.32 74 1017.1
20260902222557 77 69 0.0 3.0 0.00 0.52 0.32 74 1017.1
20260902222245 77 83 0.0 0.0 0.00 0.52 0.32 74 1017.2
20260902221937 77 83 0.0 1.0 0.00 0.52 0.32 74 1017.0
20260902221210 77 87 0.0 1.0 0.00 0.52 0.32 74 1017.0
20260902220906 77 96 0.0 0.0 0.00 0.52 0.32 74 1016.8
20260902220610 78 84 0.0 1.0 0.00 0.52 0.32 74 1016.9
20260902220312 78 317 0.0 0.0 0.00 0.52 0.32 74 1017.0
20260902220013 78 90 0.0 0.0 0.00 0.52 0.32 74 1017.2
20260902215717 78 89 0.0 0.0 0.00 0.52 0.32 74 1017.0
20260902214951 78 45 1.0 2.0 0.00 0.52 0.32 73 1017.2
20260902214652 78 68 1.0 3.0 0.00 0.52 0.32 73 1017.3
20260902214348 78 71 1.0 3.0 0.00 0.52 0.32 73 1017.2
20260902214047 78 69 1.0 3.0 0.00 0.52 0.32 73 1017.2
20260902213307 78 93 0.0 3.0 0.00 0.52 0.32 74 1017.4
20260902213003 78 45 0.0 1.0 0.00 0.52 0.32 74 1017.3
20260902212651 78 76 0.0 1.0 0.00 0.52 0.32 74 1017.4
20260902211936 78 284 0.0 2.0 0.00 0.52 0.32 74 1017.5
20260902211639 78 289 0.0 3.0 0.00 0.52 0.32 74 1017.4
20260902211325 77 296 0.0 3.0 0.00 0.52 0.32 74 1017.4
20260902211025 77 63 0.0 3.0 0.00 0.52 0.32 74 1017.4
20260902210715 77 86 1.0 3.0 0.00 0.52 0.32 74 1017.4
20260902210410 77 355 0.0 3.0 0.00 0.52 0.32 74 1017.5
20260902210103 77 9 0.0 3.0 0.00 0.52 0.32 74 1017.5
20260902205759 77 81 0.0 1.0 0.00 0.52 0.32 74 1017.5
20260902205500 77 111 0.0 1.0 0.00 0.52 0.32 75 1017.7
20260902205201 77 54 0.0 0.0 0.00 0.52 0.32 74 1017.8
20260902204439 77 180 0.0 2.0 0.00 0.52 0.32 74 1017.9
20260902204128 77 86 0.0 2.0 0.00 0.52 0.32 75 1018.0
20260902203817 77 238 0.0 1.0 0.00 0.52 0.32 75 1018.0
20260902203509 77 254 0.0 0.0 0.00 0.52 0.32 74 1018.0
20260902203211 77 310 1.0 4.0 0.00 0.52 0.32 75 1018.0
20260902202449 77 180 1.0 4.0 0.00 0.52 0.32 75 1017.9
20260902202140 77 30 1.0 4.0 0.00 0.52 0.32 74 1017.8
20260902201837 77 198 1.0 4.0 0.00 0.52 0.32 75 1017.8
20260902201529 77 137 1.0 4.0 0.00 0.52 0.32 74 1017.7
20260902201215 77 125 1.0 4.0 0.00 0.52 0.32 75 1017.7
20260902200904 77 60 1.0 3.0 0.00 0.52 0.32 75 1017.7
20260902200557 77 225 1.0 3.0 0.00 0.52 0.32 76 1017.7
20260902200255 76 242 0.0 3.0 0.00 0.52 0.32 76 1017.8
20260902195523 76 77 0.0 2.0 0.00 0.52 0.32 75 1017.9
20260902195210 76 98 0.0 4.0 0.00 0.52 0.32 75 1017.9
20260902194907 76 98 0.0 2.0 0.00 0.52 0.32 76 1018.0
20260902194137 76 56 0.0 5.0 0.00 0.52 0.32 76 1018.1
20260902193827 75 121 0.0 5.0 0.00 0.52 0.32 76 1018.2
20260902193518 75 173 0.0 5.0 0.00 0.52 0.32 76 1018.2
20260902192754 75 42 1.0 5.0 0.00 0.52 0.32 76 1018.3
20260902192456 75 176 1.0 5.0 0.00 0.52 0.32 77 1018.4
20260902192143 75 236 1.0 3.0 0.00 0.52 0.32 77 1018.5
20260902191843 75 326 1.0 3.0 0.00 0.52 0.32 77 1018.4
20260902191539 75 252 0.0 3.0 0.00 0.52 0.32 78 1018.6
20260902191238 75 334 0.0 2.0 0.00 0.52 0.32 78 1018.5
20260902190926 74 177 0.0 2.0 0.00 0.52 0.32 78 1018.5
20260902190623 74 248 0.0 2.0 0.00 0.52 0.32 78 1018.5
20260902190319 74 244 0.0 1.0 0.00 0.52 0.32 77 1018.5
20260902190016 74 284 0.0 3.0 0.00 0.52 0.32 78 1018.4
20260902185301 74 298 0.0 5.0 0.00 0.52 0.32 78 1018.3
20260902184955 74 23 1.0 5.0 0.00 0.52 0.32 78 1018.3
20260902184235 73 261 0.0 5.0 0.00 0.52 0.32 79 1018.2
20260902183936 73 296 0.0 5.0 0.00 0.52 0.32 79 1018.1
20260902183631 73 246 1.0 5.0 0.00 0.52 0.32 79 1018.1
20260902183331 73 0 0.0 5.0 0.00 0.52 0.32 78 1018.1
20260902183030 72 242 0.0 3.0 0.00 0.52 0.32 78 1018.2
20260902182311 72 283 0.0 0.0 0.00 0.52 0.32 79 1018.2
20260902182009 72 279 0.0 0.0 0.00 0.52 0.32 78 1018.3